Temp
88 89 88 89 88 89 89 86 85 86 87 80 77 77 82 86 79 75 79 84 83 82 83 83 82 82 82 82 82 82 82 82 82 81 81 81 81 81 81 81 81 80 80
88 89 88 88 88 90 91 88 87 86 86 88 83 82 86 89 81 79 81 85 83 82 82 83 83 83 83 82 82 82 82 82 82 81 81 81 81 81 81 81 81 81 80
87 88 87 88 89 91 92 88 87 86 87 90 88 87 88 90 87 86 88 87 84 82 82 82 82 82 82 82 82 82 81 81 81 81 81 81 80 80 80 81 81 81 80
89 86 87 88 91 88 89 89 88 87 87 87 86 87 86 90 91 91 91 90 87 89 82 82 81 81 82 82 82 82 81 81 80 81 80 80 80 80 80 80 80 80 80
90 87 88 89 92 89 88 90 88 87 85 86 88 87 88 88 89 96 92 90 90 85 85 83 81 81 82 82 82 82 82 81 81 80 80 80 80 80 79 79 79 79 79
90 88 89 88 90 88 88 86 86 87 86 85 91 89 86 89 85 81 85 94 88 88 89 83 80 81 81 82 82 82 82 82 81 81 80 80 80 79 79 79 79 79 79
90 88 89 89 90 87 86 89 86 84 85 86 81 84 86 80 75 71 75 88 90 89 88 86 82 83 84 80 81 81 82 82 82 81 80 80 80 79 79 79 78 78 78
91 91 88 88 88 87 88 88 86 83 84 85 81 81 77 76 73 72 73 74 73 83 88 88 86 84 84 81 80 80 81 81 82 81 80 79 79 79 79 78 78 77 77
90 89 89 88 87 87 86 86 86 83 81 84 84 79 75 75 80 80 82 76 75 74 83 89 88 85 84 84 83 81 81 80 81 82 81 80 79 78 78 78 78 77 77
89 90 88 88 86 87 85 86 88 85 84 81 84 88 82 81 74 76 82 83 82 80 82 88 73 71 76 86 87 84 80 78 80 81 81 81 79 78 78 78 78 77 77
89 90 89 87 86 87 85 84 83 83 84 83 82 82 82 80 80 75 76 80 85 89 89 81 70 68 72 86 86 86 81 79 78 79 80 81 80 79 79 78 79 78 78
91 89 91 88 88 87 86 86 85 84 84 83 84 82 82 81 78 75 73 77 80 85 91 87 82 76 81 84 89 87 82 79 78 78 78 79 79 80 80 79 79 79 79
93 90 88 88 89 87 86 86 85 84 85 84 83 80 82 83 79 77 75 77 75 83 85 88 89 90 85 77 77 73 82 80 77 76 76 76 77 77 78 79 79 79 80
93 93 89 90 88 89 88 85 86 85 85 81 82 82 83 84 82 78 76 74 71 76 79 81 86 89 87 79 72 72 77 79 77 75 74 74 74 75 75 76 77 78 78
93 94 94 93 93 92 90 88 86 82 83 82 80 80 82 83 80 80 79 77 73 70 74 80 82 85 85 78 73 74 72 78 78 75 73 73 73 73 73 74 74 75 75
89 91 91 90 91 90 88 85 82 82 82 80 80 80 81 82 82 82 81 80 77 73 72 80 82 82 84 86 79 75 72 75 77 76 74 72 72 72 72 72 72 72 73
90 90 90 90 87 85 85 83 82 82 80 79 78 78 77 77 79 80 81 80 78 77 72 76 75 75 77 81 84 79 80 78 76 74 74 72 71 71 71 71 71 71 71
90 86 83 81 80 81 80 79 78 78 76 76 76 75 75 79 75 76 77 75 77 77 77 74 78 80 79 81 81 79 79 86 85 75 72 71 70 69 68 68 68 68 68
78 77 78 77 76 78 77 76 75 72 72 73 73 71 72 72 72 74 74 74 75 77 76 75 75 79 80 81 78 79 78 78 78 73 73 70 69 68 67 66 66 64 63
72 72 75 75 74 73 68 68 70 69 70 71 71 72 72 71 70 70 71 70 72 72 73 72 73 75 74 77 75 75 75 75 75 70 68 68 68 68 68 67 66 65 62
70 75 72 71 72 67 66 64 65 66 67 68 70 72 72 72 72 70 70 69 69 68 69 70 71 72 73 73 72 75 73 74 70 69 67 68 68 67 67 68 69 68 64
71 71 70 70 70 70 63 64 64 63 66 68 69 70 71 72 72 65 65 66 66 61 63 66 68 68 70 72 70 73 70 68 66 68 66 65 66 64 65 66 63 62 61
70 69 69 68 65 66 63 62 64 64 66 70 68 68 69 72 68 64 65 66 67 67 67 66 65 68 68 71 70 70 70 69 67 67 67 63 65 64 66 65 61 60 61
67 67 67 67 68 66 62 61 62 67 69 70 70 70 67 66 65 63 62 63 64 65 67 71 69 71 71 71 70 70 70 70 68 67 67 61 64 63 64 64 61 60 59
67 68 70 68 68 66 61 60 61 67 69 68 69 67 66 64 63 61 60 60 61 63 66 65 66 66 65 65 66 68 68 67 65 65 67 64 63 62 64 63 61 58 57
70 72 69 70 68 70 60 60 61 68 67 68 68 68 66 62 59 57 57 59 57 59 59 62 66 66 67 69 66 67 69 66 64 62 67 64 62 63 60 63 62 63 60
MSLP
1013.55 1013.35 1013.37 1013.47 1013.39 1013.04 1012.77 1012.86 1013.39 1013.49 1013.40 1013.28 1014.53 1014.21 1013.37 1012.78 1012.92 1012.60 1013.17 1013.31 1012.97 1013.13 1013.21 1013.33 1013.79 1014.09 1014.22 1014.29 1014.57 1014.97 1015.37 1015.74 1015.99 1016.27 1016.60 1016.91 1017.12 1017.33 1017.54 1017.77 1018.07 1018.35 1018.51
1013.26 1013.24 1013.39 1013.37 1013.11 1012.69 1012.42 1012.63 1013.02 1013.17 1013.01 1012.57 1013.00 1013.16 1012.42 1012.23 1012.78 1012.83 1012.80 1012.60 1012.48 1012.59 1012.68 1012.76 1013.06 1013.31 1013.47 1013.79 1014.13 1014.59 1014.92 1015.23 1015.46 1015.63 1015.94 1016.35 1016.69 1016.95 1017.11 1017.31 1017.55 1017.89 1018.23
1013.22 1013.25 1013.30 1013.01 1012.64 1012.31 1012.27 1012.29 1012.39 1012.56 1012.73 1012.47 1012.32 1012.27 1012.21 1011.96 1012.16 1012.26 1012.04 1011.98 1011.95 1012.02 1012.07 1012.47 1012.55 1012.57 1012.67 1012.93 1013.35 1013.85 1014.27 1014.58 1014.78 1015.01 1015.32 1015.67 1016.07 1016.48 1016.78 1016.91 1017.10 1017.34 1017.65
1012.91 1013.13 1013.07 1012.68 1012.30 1012.29 1012.19 1012.11 1011.99 1012.08 1012.34 1012.55 1012.52 1012.18 1011.91 1011.72 1011.16 1010.88 1010.73 1010.95 1011.51 1011.36 1011.68 1011.89 1012.13 1012.20 1012.17 1012.23 1012.46 1012.91 1013.42 1013.81 1014.06 1014.37 1014.78 1015.09 1015.49 1015.90 1016.24 1016.53 1016.72 1016.94 1017.22
1012.61 1012.97 1012.80 1012.26 1011.91 1012.19 1012.21 1011.96 1011.83 1012.05 1012.47 1012.55 1012.25 1011.69 1011.34 1011.23 1011.02 1010.41 1010.63 1010.65 1010.96 1011.75 1011.87 1011.54 1011.56 1011.61 1011.75 1011.88 1011.97 1012.13 1012.47 1012.90 1013.22 1013.57 1014.03 1014.56 1014.96 1015.32 1015.68 1016.00 1016.31 1016.56 1016.81
1012.12 1012.46 1012.47 1012.29 1011.91 1012.18 1012.12 1012.31 1012.30 1012.36 1012.59 1012.58 1012.27 1012.02 1011.64 1011.51 1011.56 1011.88 1011.49 1009.95 1009.67 1010.53 1010.78 1010.89 1011.37 1011.17 1011.22 1011.29 1011.44 1011.60 1011.82 1012.16 1012.34 1012.75 1013.28 1013.75 1014.30 1014.77 1015.10 1015.47 1015.83 1016.12 1016.33
1011.63 1011.91 1012.31 1012.15 1012.01 1012.07 1011.95 1011.89 1012.16 1012.44 1012.46 1012.11 1012.06 1012.04 1011.70 1011.99 1011.49 1010.80 1010.56 1010.97 1010.81 1009.15 1009.24 1009.92 1010.40 1010.41 1010.35 1010.81 1010.93 1010.93 1011.08 1011.42 1011.70 1011.95 1012.47 1013.11 1013.55 1013.97 1014.44 1014.84 1015.21 1015.61 1015.89
1011.28 1011.47 1011.87 1011.95 1011.87 1011.86 1011.93 1011.89 1011.97 1012.21 1012.29 1011.92 1012.03 1011.99 1012.25 1012.65 1012.21 1012.04 1011.33 1011.91 1010.37 1009.52 1009.54 1009.72 1009.21 1009.44 1009.52 1010.47 1010.55 1010.63 1010.37 1010.48 1010.86 1011.31 1011.78 1012.25 1012.81 1013.20 1013.58 1014.01 1014.49 1014.90 1015.23
1011.06 1011.29 1011.39 1011.71 1011.81 1011.89 1011.87 1011.79 1011.76 1011.92 1012.05 1011.89 1011.74 1011.83 1011.89 1012.03 1011.59 1011.60 1011.29 1010.53 1009.67 1010.07 1010.43 1010.17 1008.72 1008.85 1008.45 1008.96 1009.83 1009.70 1009.79 1009.79 1010.06 1010.47 1010.85 1011.45 1012.11 1012.59 1012.93 1013.27 1013.63 1014.07 1014.57
1010.53 1010.80 1010.99 1011.38 1011.61 1011.85 1011.85 1011.79 1011.68 1011.50 1011.59 1011.68 1011.42 1010.97 1011.18 1011.27 1011.31 1010.96 1010.59 1010.23 1009.99 1009.73 1009.62 1009.29 1010.30 1010.43 1010.87 1008.05 1007.97 1008.32 1008.67 1009.01 1009.35 1009.78 1010.14 1010.57 1011.13 1011.74 1012.25 1012.67 1012.97 1013.28 1013.76
1010.06 1010.25 1010.45 1010.87 1011.19 1011.45 1011.51 1011.44 1011.37 1011.38 1011.32 1011.22 1011.20 1011.11 1010.90 1010.83 1010.99 1010.81 1010.21 1009.87 1009.14 1008.14 1007.55 1007.67 1008.19 1010.01 1008.51 1008.61 1007.73 1006.95 1007.61 1007.94 1008.38 1008.80 1009.16 1009.80 1010.28 1010.73 1011.37 1011.87 1012.28 1012.57 1012.87
1009.40 1009.59 1009.75 1010.13 1010.43 1010.69 1010.90 1011.00 1011.12 1011.15 1011.11 1011.01 1010.89 1010.80 1010.70 1010.60 1010.43 1010.80 1010.44 1009.71 1008.78 1007.49 1006.83 1006.44 1007.16 1007.32 1007.47 1006.93 1005.31 1006.32 1007.41 1007.64 1007.81 1008.21 1008.55 1008.81 1009.51 1009.89 1010.34 1010.96 1011.41 1011.84 1012.12
1008.43 1008.57 1009.00 1009.54 1009.97 1010.19 1010.35 1010.61 1010.77 1010.79 1010.83 1010.83 1010.73 1010.60 1010.30 1010.20 1009.99 1010.08 1009.98 1009.63 1009.13 1008.07 1007.01 1006.39 1006.13 1005.50 1006.19 1007.59 1007.38 1007.16 1008.15 1007.11 1007.75 1007.81 1007.79 1008.16 1008.61 1009.17 1009.39 1010.01 1010.59 1010.99 1011.35
1008.26 1008.09 1008.68 1009.19 1009.52 1009.73 1010.05 1010.39 1010.62 1010.59 1010.59 1010.61 1010.43 1010.24 1010.09 1009.80 1009.64 1009.61 1009.69 1009.60 1008.81 1008.13 1007.42 1006.26 1005.95 1005.45 1005.22 1006.00 1007.42 1008.21 1008.17 1006.79 1006.60 1007.13 1007.20 1007.61 1007.77 1008.61 1008.84 1009.09 1009.67 1010.18 1010.47
1008.37 1008.27 1008.43 1008.62 1009.00 1009.35 1009.68 1009.93 1010.13 1010.23 1010.37 1010.31 1010.36 1010.03 1009.83 1009.43 1009.25 1009.09 1008.89 1009.09 1008.99 1008.37 1007.19 1006.11 1006.55 1005.40 1005.11 1005.36 1005.84 1005.33 1006.79 1006.65 1006.19 1006.63 1006.69 1007.19 1006.83 1007.61 1008.15 1008.20 1008.79 1009.43 1009.83
1008.04 1008.26 1008.57 1008.72 1009.03 1009.33 1009.73 1010.13 1010.33 1010.41 1010.24 1010.25 1010.16 1009.92 1009.58 1009.32 1008.97 1008.73 1008.49 1008.37 1008.29 1008.19 1007.47 1006.55 1006.12 1005.88 1005.45 1004.98 1005.19 1006.29 1006.07 1004.40 1005.27 1005.93 1006.49 1006.62 1006.27 1006.90 1007.50 1007.62 1008.15 1008.79 1009.24
1008.23 1008.27 1008.64 1008.83 1009.12 1009.59 1009.90 1010.11 1010.30 1010.44 1010.37 1010.15 1010.17 1010.01 1009.84 1009.55 1009.14 1008.68 1008.25 1007.83 1007.69 1007.49 1007.12 1006.54 1006.29 1005.27 1005.73 1005.06 1004.67 1004.86 1004.74 1004.76 1006.53 1005.86 1006.02 1006.35 1006.01 1006.51 1006.64 1006.97 1007.53 1008.05 1008.63
1008.45 1008.78 1009.29 1009.76 1010.33 1010.51 1011.01 1011.11 1010.82 1010.95 1010.75 1010.65 1010.36 1010.35 1009.84 1009.53 1009.36 1008.85 1008.35 1008.00 1007.67 1007.37 1006.98 1006.27 1005.97 1005.53 1005.22 1004.71 1004.18 1004.28 1004.72 1004.61 1004.59 1004.81 1005.42 1005.39 1005.87 1006.46 1006.57 1006.80 1007.24 1007.63 1008.06
1009.93 1009.91 1010.66 1010.14 1010.22 1010.60 1010.72 1011.62 1011.50 1011.69 1011.55 1011.55 1010.92 1010.76 1010.30 1009.92 1009.71 1009.30 1008.79 1008.12 1007.84 1007.35 1006.87 1006.24 1005.53 1005.01 1004.34 1003.75 1003.42 1003.16 1003.28 1003.83 1004.16 1004.73 1004.93 1005.17 1005.53 1005.45 1005.97 1006.49 1006.78 1007.07 1007.39
1010.23 1011.15 1011.72 1011.57 1011.13 1011.31 1011.96 1011.52 1012.01 1012.23 1011.89 1011.37 1011.31 1010.53 1010.34 1009.96 1009.79 1009.51 1009.03 1008.32 1007.90 1007.52 1006.94 1006.46 1005.76 1005.08 1004.49 1003.83 1003.72 1003.64 1003.30 1003.38 1003.70 1004.98 1005.46 1005.26 1005.75 1005.89 1006.15 1006.49 1006.52 1006.58 1006.65
1011.21 1011.84 1012.60 1011.27 1012.00 1011.55 1012.68 1012.59 1012.87 1012.26 1011.58 1011.35 1010.89 1010.46 1010.06 1009.99 1009.51 1009.21 1008.98 1008.52 1008.04 1007.47 1006.85 1006.29 1005.60 1005.01 1004.35 1003.93 1003.74 1003.37 1003.13 1003.24 1003.65 1004.24 1005.19 1005.26 1005.50 1005.77 1005.93 1006.00 1006.12 1005.93 1005.90
1011.59 1011.60 1012.18 1012.91 1012.41 1011.74 1012.62 1013.01 1012.83 1012.31 1011.88 1010.99 1010.85 1010.39 1010.14 1009.83 1009.35 1009.46 1009.11 1008.65 1008.19 1007.75 1007.05 1006.11 1005.47 1004.83 1004.04 1003.82 1003.50 1003.26 1003.19 1003.37 1003.99 1004.34 1004.88 1005.31 1005.40 1005.61 1005.90 1006.15 1006.29 1006.02 1005.72
1010.87 1011.41 1011.35 1012.37 1012.25 1012.81 1012.85 1012.87 1012.73 1012.53 1011.84 1010.90 1010.81 1010.61 1010.16 1009.79 1009.47 1009.49 1008.98 1008.16 1007.43 1006.85 1006.35 1005.94 1005.07 1004.13 1003.65 1003.27 1003.07 1002.89 1002.77 1002.97 1003.29 1003.73 1004.31 1004.95 1005.30 1005.59 1005.95 1006.08 1006.23 1005.65 1005.30
1011.28 1010.75 1011.23 1012.01 1012.63 1013.25 1013.03 1012.95 1012.83 1012.10 1011.33 1010.76 1010.47 1010.37 1010.15 1009.95 1009.67 1009.49 1008.72 1007.82 1006.95 1006.12 1005.49 1004.79 1004.05 1003.17 1002.69 1002.36 1002.24 1002.12 1001.92 1002.09 1002.77 1003.47 1003.89 1004.65 1005.21 1005.61 1006.02 1006.09 1006.21 1006.06 1005.97
1010.20 1011.35 1011.79 1012.32 1012.72 1013.27 1013.11 1013.22 1012.89 1012.00 1011.35 1011.15 1010.68 1010.49 1010.38 1010.23 1009.92 1009.31 1008.63 1007.55 1006.46 1005.43 1004.73 1003.99 1003.11 1002.33 1001.86 1001.39 1001.29 1001.53 1001.43 1001.84 1002.57 1003.05 1003.51 1004.03 1004.81 1005.55 1005.73 1006.19 1006.35 1006.51 1006.39
1010.96 1011.32 1011.94 1012.32 1012.79 1012.87 1013.22 1013.10 1012.79 1012.16 1011.63 1011.05 1010.81 1010.51 1010.47 1010.46 1009.88 1009.23 1008.50 1007.55 1006.39 1005.35 1004.34 1003.01 1002.30 1001.87 1001.02 1000.63 1000.38 1000.60 1000.43 1001.03 1001.86 1002.54 1002.65 1003.21 1004.33 1004.92 1005.55 1006.08 1006.30 1006.18 1006.81
Wind_Speed
3 2 3 3 4 4 4 4 4 1 5 5 7 12 11 8 1 1 4 17 18 15 15 16 15 15 15 15 15 15 14 15 15 16 16 16 16 15 15 14 14 14 13
3 3 2 4 5 5 3 3 1 3 5 6 8 10 6 4 7 7 7 9 17 18 18 17 16 16 15 15 14 13 13 14 15 17 17 17 16 16 16 15 15 14 13
5 3 5 4 4 2 1 4 5 6 6 6 3 6 5 7 6 9 9 7 9 18 18 17 17 18 16 15 15 15 15 15 16 18 17 17 17 16 16 16 16 15 14
4 5 6 6 5 1 3 4 4 3 2 4 4 5 2 5 4 6 7 2 6 6 11 17 18 17 17 18 16 16 15 16 16 17 18 17 17 17 16 16 16 15 14
7 5 6 6 2 3 4 4 3 4 4 4 5 5 4 3 5 8 3 4 3 5 5 15 19 17 17 19 18 19 17 14 15 17 18 18 18 17 16 16 16 16 15
7 7 6 6 3 4 5 3 4 4 2 6 8 5 5 5 9 9 12 4 8 7 7 6 8 8 17 18 18 18 17 16 16 19 19 18 18 17 16 16 16 16 16
9 6 5 5 4 5 6 1 2 4 5 5 2 4 6 6 9 3 10 13 6 10 10 6 7 7 9 22 20 18 18 17 18 19 19 19 19 18 17 17 17 17 17
5 5 6 5 5 3 3 3 3 3 4 5 2 1 3 0 4 6 10 8 13 14 2 7 8 7 5 7 13 20 19 19 18 20 19 20 20 19 19 19 18 18 17
6 6 5 5 5 3 4 3 4 6 4 5 6 4 2 4 5 6 9 6 8 4 4 10 10 3 7 7 13 16 22 20 19 20 20 20 19 19 19 20 19 19 18
10 9 7 6 5 4 5 4 5 3 4 4 5 6 5 5 3 6 3 4 11 12 12 6 8 10 22 10 14 19 22 21 21 20 20 20 20 20 20 20 20 20 19
10 10 9 8 7 6 6 7 6 5 4 4 5 5 7 4 6 4 10 7 6 8 8 8 12 15 28 20 11 12 21 22 21 21 21 20 20 20 20 20 21 21 20
9 11 10 8 8 7 7 5 5 6 6 6 6 7 7 7 6 7 8 8 10 8 10 5 13 15 14 8 16 15 16 21 21 21 19 19 19 20 20 21 21 22 22
5 10 11 7 5 6 6 5 5 6 6 7 8 7 7 8 5 4 4 9 8 10 9 10 9 9 5 8 6 30 15 17 18 19 18 18 18 18 18 20 21 22 23
5 3 10 9 8 6 6 7 6 7 8 6 7 7 8 8 8 8 6 6 10 9 8 14 7 8 5 9 19 20 27 19 20 19 17 17 16 15 16 17 20 22 23
7 4 3 3 2 2 4 3 4 5 5 7 9 10 7 7 5 6 7 6 7 8 11 12 8 8 4 5 14 14 9 15 15 16 16 17 17 16 18 16 17 18 19
7 3 3 4 2 2 4 5 5 5 5 5 6 9 9 8 7 7 8 8 7 8 11 11 8 9 15 5 10 9 14 25 20 17 17 16 15 15 14 14 14 16 18
4 2 2 1 4 5 4 4 5 7 7 7 7 8 10 9 9 8 8 8 8 7 10 11 5 7 18 13 4 8 8 7 4 14 14 14 13 16 15 14 14 14 15
1 6 8 7 7 9 10 8 7 7 7 8 8 9 10 9 11 10 8 9 9 9 10 12 9 8 11 12 8 6 8 12 10 10 18 7 3 5 6 7 9 10 12
11 8 8 7 5 4 4 7 9 9 9 9 9 8 10 11 12 11 11 10 10 9 10 11 11 10 9 9 6 6 5 6 5 7 6 5 5 5 5 8 9 11 12
10 8 5 6 6 10 10 10 10 9 8 8 9 9 10 10 11 12 11 11 11 10 10 10 11 10 8 9 6 7 7 4 6 6 5 6 3 2 2 6 8 10 12
5 1 6 7 7 9 8 10 8 9 9 10 10 9 10 13 19 16 10 11 11 9 9 10 10 9 10 8 9 8 8 6 2 4 3 3 3 3 2 5 6 8 11
6 7 6 3 5 9 12 14 11 9 9 9 10 9 10 16 13 14 17 19 12 7 12 10 10 12 14 10 9 8 8 6 3 3 3 3 4 3 3 3 8 10 13
7 6 7 4 9 8 11 12 17 8 9 7 8 10 10 10 10 10 15 19 17 20 17 13 15 15 15 13 11 12 7 8 5 5 5 2 3 4 3 3 9 10 9
7 7 8 6 4 3 8 11 15 10 9 7 8 7 8 9 10 15 14 15 15 15 14 12 14 15 14 12 11 11 11 8 3 6 4 3 3 2 3 3 9 10 11
10 6 5 6 4 2 4 8 10 10 9 9 8 7 9 10 18 20 13 13 15 17 14 19 20 20 17 15 12 6 8 6 3 4 6 3 3 3 3 3 3 9 10
5 6 5 3 4 1 3 6 7 7 9 8 7 8 10 11 16 18 11 11 13 15 15 15 13 14 12 8 13 10 8 7 4 2 5 4 7 5 4 2 4 4 4
Wind_Direction
249 323 337 344 310 292 231 175 169 173 252 195 136 205 259 99 151 278 201 222 191 191 193 198 206 218 220 215 214 211 213 217 217 218 222 225 223 221 218 218 222 231 229
252 277 254 221 235 245 302 33 15 246 261 268 189 210 250 182 179 207 228 208 192 198 198 201 206 212 216 211 213 213 216 224 227 220 217 223 224 222 220 217 217 221 226
216 269 292 290 279 250 144 248 241 239 236 260 264 209 212 232 189 214 237 196 203 209 195 204 209 207 211 215 218 219 228 233 231 223 217 216 221 220 221 219 217 219 221
238 199 244 250 242 235 276 263 236 255 8 346 313 293 247 233 286 224 219 193 202 214 197 206 212 214 213 217 220 224 231 235 226 219 216 214 218 219 218 221 221 220 224
198 217 266 270 259 249 267 287 341 21 6 331 286 254 262 282 265 268 203 152 217 170 210 208 205 212 218 222 225 228 229 225 218 214 211 215 218 218 218 219 221 222 222
192 192 237 269 300 286 279 50 20 3 327 272 272 3 325 301 20 350 340 251 199 193 223 151 190 211 221 224 223 223 226 228 224 214 211 210 216 219 218 218 221 222 221
189 198 243 272 223 230 251 34 356 325 280 281 26 337 315 52 98 300 289 289 346 190 198 179 179 204 210 217 220 220 223 226 228 210 206 210 214 214 217 218 217 220 221
219 228 203 257 283 312 326 209 206 246 290 293 256 234 297 227 312 215 257 117 209 274 275 198 189 209 187 198 216 224 221 219 220 210 207 211 211 213 213 216 216 217 216
216 229 248 222 252 320 284 286 223 223 249 291 266 208 281 236 289 184 230 227 219 260 353 256 200 223 190 180 210 216 217 213 213 209 208 212 211 211 213 215 213 213 215
197 215 222 220 233 254 264 266 281 256 241 262 280 284 225 234 263 307 211 245 210 223 212 213 38 352 301 214 214 196 202 207 208 211 211 211 212 211 213 215 214 212 213
194 205 211 211 214 217 236 240 262 266 265 250 261 286 289 278 236 258 292 286 281 281 249 160 147 201 224 242 214 199 192 198 204 209 211 215 215 214 214 214 215 215 212
190 204 209 204 205 207 221 236 250 244 251 258 274 291 282 279 287 286 290 296 289 296 295 219 183 211 230 257 201 191 191 195 200 203 205 208 215 215 216 218 218 217 215
221 202 198 197 200 209 219 233 238 238 244 254 260 278 286 284 301 305 309 290 295 311 310 306 309 299 176 179 16 24 294 194 198 199 198 205 211 215 215 218 219 216 216
267 292 177 195 204 206 196 216 233 241 248 266 273 271 279 281 279 279 271 285 297 286 294 279 307 287 333 124 118 112 272 224 194 196 196 200 203 213 216 217 215 216 214
279 279 184 179 138 215 231 261 271 298 301 295 292 290 278 279 283 280 275 272 265 287 286 287 294 301 329 140 179 193 235 232 199 196 198 202 196 206 217 214 211 212 212
213 270 43 22 4 303 348 346 314 308 297 293 289 292 286 288 287 285 277 267 261 257 272 281 289 322 312 298 215 204 201 224 203 204 206 204 196 205 212 212 212 213 211
318 2 315 338 32 37 21 358 343 312 344 340 332 325 317 321 307 304 306 304 283 258 262 279 242 277 267 279 272 201 205 235 259 225 210 207 199 206 205 208 214 213 216
349 34 44 42 19 13 7 354 351 335 326 319 334 330 317 318 309 301 294 290 292 297 296 291 282 256 260 273 266 228 179 206 216 192 221 207 176 162 191 207 219 221 220
42 46 9 37 42 40 22 358 18 6 347 325 321 318 319 321 311 309 302 296 295 300 302 299 296 289 280 283 286 263 237 217 228 146 122 136 153 184 210 230 222 221 225
63 11 344 24 28 44 31 29 5 338 317 318 306 313 312 306 304 316 309 301 296 294 298 299 297 297 284 283 276 276 276 249 248 116 75 82 40 39 43 266 247 239 230
51 326 360 46 57 69 27 15 338 323 322 312 314 314 317 307 288 284 296 306 309 302 293 288 285 286 281 276 264 269 259 258 326 105 170 174 155 133 65 337 293 310 254
84 112 81 358 51 57 26 6 351 328 310 315 307 331 325 321 337 25 343 330 307 293 296 287 283 275 273 271 272 262 259 259 256 169 190 166 148 116 105 51 349 313 280
143 115 86 55 66 46 18 353 343 319 300 311 342 329 323 321 345 348 328 315 308 297 273 269 275 268 272 266 268 276 265 250 212 160 161 159 152 118 107 74 17 16 9
117 80 73 62 81 79 19 352 333 307 302 346 324 330 333 346 347 339 326 315 307 300 296 289 277 277 273 270 258 252 250 250 50 142 178 141 148 125 140 110 52 40 41
84 93 95 80 28 146 26 326 332 319 7 334 8 352 5 349 339 330 319 310 307 309 298 288 279 266 266 256 246 275 255 225 154 171 196 150 152 132 147 110 82 69 54
88 96 106 123 202 12 187 331 356 332 353 343 343 357 2 352 330 328 325 322 314 312 305 295 289 296 259 262 253 225 234 202 147 144 185 135 150 179 139 139 162 123 87